Location: Prague
(50.0830°N, 14.4670°E)
Time: 07:54:53
(UTC+01:00)

XW-2F - Pass Details

Date: 04 December 2021
Orbit: 494 x 515 km, 97.5° (Epoch: 18 January)

Event Time Altitude Azimuth Distance (km) Brightness Sun altitude
Rises 17:09:41 0° 162° (SSE) 2,603 ? -10.4°
Reaches altitude 10° 17:11:45 10° 162° (SSE) 1,727 ? -10.7°
Maximum altitude 17:15:28 80° 75° (ENE) 527 ? -11.3°
Drops below altitude 10° 17:19:15 10° 349° (NNW) 1,754 ? -11.9°
Sets 17:21:22 0° 348° (NNW) 2,649 ? -12.2°
